Location: Ripley
(48.3812°N, 115.4473°W)
Time: 17:46:29
(UTC+00:00)

O/OREOS (USA 219) - Pass Details

Date: 03 July 2022
Orbit: 621 x 646 km, 72.0° (Epoch: 22 May)

Event Time Altitude Azimuth Distance (km) Brightness Sun altitude
Rises 07:56:01 0° 330° (NNW) 2,966 ? -18.6°
Reaches altitude 10° 07:58:20 10° 326° (NW) 2,053 ? -18.6°
Maximum altitude 08:02:50 55° 249° (WSW) 782 ? -18.6°
Enters shadow 08:04:11 39° 196° (SSW) 966 ? -18.6°
